Simultaneous Nadir Overpasses (SNOs) Predictions

Prediction of SNOs between NPP and TERRA Satellite Orbit:

Table of predicted SNOs for the next 14.0 days since TLE Epoch: 10/26/2013
Index Date (NPP) Time (NPP) Lat,Lon (NPP) SZA (NPP ) Date (TERRA) Time (TERRA) Lat,Lon (TERRA) SZA (TERRA ) Distance(km) Time Diff (sec)
1 10/28/2013 01:16:16 -69.52, -21.78 97.47 10/28/2013 01:17:22 -69.45, -19.35 97.50 95.15 66
2 10/28/2013 02:06:42 68.44, 147.01 81.48 10/28/2013 02:07:05 68.46, 147.03 81.49 1.56 23
3 10/28/2013 02:57:23 -68.30, -45.48 98.66 10/28/2013 02:56:36 -68.30, -45.53 98.66 1.83 47
4 10/30/2013 17:33:00 -68.88, 94.90 97.23 10/30/2013 17:34:11 -68.75, 95.59 97.34 31.07 71
5 10/30/2013 18:23:38 68.44, -97.20 82.36 10/30/2013 18:23:42 68.41, -97.17 82.33 3.13 4
6 10/30/2013 19:14:19 -68.29, 70.31 97.78 10/30/2013 19:13:13 -68.27, 70.28 97.81 3.06 66
7 11/02/2013 09:49:49 -68.50,-148.81 96.74 11/02/2013 09:50:55 -68.51,-148.87 96.73 2.37 66
8 11/02/2013 10:40:33 68.39, 18.64 83.17 11/02/2013 10:40:22 68.39, 18.64 83.17 0.54 11
9 11/02/2013 11:31:08 -67.97,-173.50 97.24 11/02/2013 11:29:56 -68.03,-174.16 97.20 28.30 72
10 11/05/2013 02:06:44 -68.51, -33.04 95.91 11/05/2013 02:07:37 -68.51, -33.05 95.90 0.45 53
11 11/05/2013 02:57:28 68.40, 134.41 84.00 11/05/2013 02:57:04 68.39, 134.46 84.00 2.13 24
12 11/05/2013 03:47:56 -67.54, -57.20 96.83 11/05/2013 03:46:47 -67.59, -58.85 96.82 70.13 69
13 11/07/2013 18:23:40 -68.52, 82.72
